Stündliche Wetter Abolmasovo

Heute, 22 Juni, Dienstag

Zeit Temperatur Niederschläge Wind Luftdruck Luftfeuchtigkeit
00:00 +20°C° 0 mm 3 m/S 746 mmHg 91%
01:00 +19°C° 0 mm 3 m/S 746 mmHg 91%
02:00 +18°C° 0 mm 3 m/S 746 mmHg 91%
03:00 +19°C° 0 mm 3 m/S 746 mmHg 90%
04:00 +19°C° 0 mm 3 m/S 746 mmHg 89%
05:00 +20°C° 0 mm 2 m/S 746 mmHg 88%
06:00 +21°C° 0 mm 3 m/S 746 mmHg 82%
07:00 +23°C° 0 mm 4 m/S 747 mmHg 76%
08:00 +26°C° 0 mm 4 m/S 747 mmHg 70%
09:00 +27°C° 0 mm 4 m/S 747 mmHg 66%
10:00 +29°C° 0 mm 5 m/S 747 mmHg 63%
11:00 +30°C° 0 mm 5 m/S 747 mmHg 59%
12:00 +30°C° 0 mm 5 m/S 747 mmHg 59%
13:00 +32°C° 0 mm 5 m/S 747 mmHg 59%
14:00 +32°C° 0 mm 5 m/S 747 mmHg 59%
15:00 +32°C° 0 mm 4 m/S 746 mmHg 62%
16:00 +30°C° 0 mm 4 m/S 746 mmHg 66%
17:00 +30°C° 0 mm 4 m/S 746 mmHg 70%
18:00 +28°C° 0 mm 3 m/S 746 mmHg 76%
19:00 +26°C° 0 mm 3 m/S 746 mmHg 82%
20:00 +25°C° 0 mm 2 m/S 746 mmHg 89%
21:00 +24°C° 0 mm 3 m/S 746 mmHg 90%
22:00 +22°C° 0 mm 3 m/S 746 mmHg 91%
23:00 +22°C° 0 mm 3 m/S 747 mmHg 91%

Morgen, 23 Juni, Mittwoch

Zeit Temperatur Niederschläge Wind Luftdruck Luftfeuchtigkeit
00:00 +21°C° 0 mm 3 m/S 747 mmHg 91%
01:00 +21°C° 0 mm 3 m/S 747 mmHg 91%
02:00 +20°C° 0 mm 3 m/S 747 mmHg 92%
03:00 +21°C° 0 mm 2 m/S 747 mmHg 90%
04:00 +21°C° 0 mm 2 m/S 747 mmHg 89%
05:00 +21°C° 0 mm 2 m/S 747 mmHg 87%
06:00 +24°C° 0 mm 3 m/S 747 mmHg 81%
07:00 +25°C° 0 mm 3 m/S 747 mmHg 75%
08:00 +27°C° 0 mm 4 m/S 747 mmHg 70%
09:00 +28°C° 0 mm 4 m/S 747 mmHg 65%
10:00 +29°C° 0 mm 4 m/S 747 mmHg 61%
11:00 +30°C° 0 mm 4 m/S 747 mmHg 56%
12:00 +32°C° 0 mm 4 m/S 747 mmHg 55%
13:00 +32°C° 0 mm 4 m/S 747 mmHg 54%
14:00 +33°C° 0 mm 4 m/S 747 mmHg 53%
15:00 +32°C° 0 mm 4 m/S 747 mmHg 58%
16:00 +31°C° 0 mm 3 m/S 747 mmHg 62%
17:00 +30°C° 0 mm 3 m/S 747 mmHg 66%
18:00 +28°C° 0 mm 3 m/S 747 mmHg 73%
19:00 +27°C° 0 mm 2 m/S 747 mmHg 79%
20:00 +25°C° 0 mm 2 m/S 747 mmHg 86%
21:00 +24°C° 0 mm 2 m/S 746 mmHg 88%
22:00 +24°C° 0 mm 2 m/S 746 mmHg 89%
23:00 +23°C° 0 mm 2 m/S 746 mmHg 91%

übermorgen, 24 Juni, Donnerstag

Zeit Temperatur Niederschläge Wind Luftdruck Luftfeuchtigkeit
00:00 +23°C° 0 mm 2 m/S 747 mmHg 92%
01:00 +21°C° 0 mm 2 m/S 747 mmHg 92%
02:00 +21°C° 0 mm 2 m/S 747 mmHg 93%
03:00 +21°C° 0 mm 2 m/S 747 mmHg 92%
04:00 +23°C° 0 mm 2 m/S 747 mmHg 91%
05:00 +23°C° 0 mm 2 m/S 747 mmHg 90%
06:00 +25°C° 0 mm 2 m/S 747 mmHg 84%
07:00 +26°C° 0 mm 3 m/S 747 mmHg 78%
08:00 +28°C° 0 mm 3 m/S 747 mmHg 73%
09:00 +29°C° 0 mm 3 m/S 747 mmHg 68%
10:00 +30°C° 0 mm 3 m/S 747 mmHg 63%
11:00 +31°C° 0 mm 3 m/S 747 mmHg 58%
12:00 +32°C° 0 mm 2 m/S 747 mmHg 56%
13:00 +32°C° 0 mm 2 m/S 747 mmHg 54%
14:00 +32°C° 0 mm 2 m/S 746 mmHg 52%
15:00 +32°C° 0.1 mm 2 m/S 746 mmHg 57%
16:00 +31°C° 0.1 mm 2 m/S 746 mmHg 61%
17:00 +31°C° 0.1 mm 2 m/S 746 mmHg 66%
18:00 +29°C° 0.3 mm 2 m/S 746 mmHg 71%
19:00 +27°C° 0.3 mm 2 m/S 745 mmHg 77%
20:00 +25°C° 0.3 mm 2 m/S 745 mmHg 83%
21:00 +24°C° 0.5 mm 1 m/S 745 mmHg 84%
22:00 +23°C° 0.5 mm 1 m/S 745 mmHg 85%
23:00 +22°C° 0.5 mm 1 m/S 746 mmHg 86%

25 Juni, Freitag

Zeit Temperatur Niederschläge Wind Luftdruck Luftfeuchtigkeit
00:00 +22°C° 0 mm 1 m/S 745 mmHg 86%
01:00 +22°C° 0 mm 1 m/S 745 mmHg 85%
02:00 +19°C° 0 mm 0 m/S 745 mmHg 85%
03:00 +20°C° 0 mm 0 m/S 745 mmHg 86%
04:00 +22°C° 0 mm 1 m/S 745 mmHg 86%
05:00 +23°C° 0 mm 1 m/S 745 mmHg 87%
06:00 +23°C° 0 mm 0 m/S 745 mmHg 81%
07:00 +24°C° 0 mm 0 m/S 745 mmHg 76%
08:00 +26°C° 0 mm 0 m/S 745 mmHg 70%
09:00 +27°C° 0.2 mm 0 m/S 745 mmHg 65%
10:00 +30°C° 0.2 mm 1 m/S 745 mmHg 59%
11:00 +32°C° 0.2 mm 1 m/S 745 mmHg 54%
12:00 +32°C° 0 mm 1 m/S 745 mmHg 52%
13:00 +32°C° 0 mm 2 m/S 745 mmHg 50%
14:00 +34°C° 0 mm 2 m/S 745 mmHg 48%
15:00 +32°C° 0 mm 2 m/S 744 mmHg 53%
16:00 +32°C° 0 mm 2 m/S 744 mmHg 58%
17:00 +31°C° 0 mm 2 m/S 743 mmHg 63%
18:00 +29°C° 0.1 mm 2 m/S 743 mmHg 69%
19:00 +27°C° 0.1 mm 2 m/S 743 mmHg 75%
20:00 +25°C° 0.1 mm 2 m/S 743 mmHg 81%
21:00 +25°C° 0.2 mm 2 m/S 743 mmHg 83%
22:00 +24°C° 0.2 mm 1 m/S 743 mmHg 84%
23:00 +23°C° 0.2 mm 1 m/S 743 mmHg 85%

26 Juni, Samstag

Zeit Temperatur Niederschläge Wind Luftdruck Luftfeuchtigkeit
00:00 +23°C° 0.2 mm 1 m/S 743 mmHg 86%
01:00 +22°C° 0.2 mm 1 m/S 743 mmHg 86%
02:00 +22°C° 0.2 mm 1 m/S 743 mmHg 87%
03:00 +22°C° 0.2 mm 1 m/S 743 mmHg 87%
04:00 +22°C° 0.2 mm 1 m/S 743 mmHg 88%
05:00 +23°C° 0.2 mm 1 m/S 743 mmHg 89%
06:00 +24°C° 0 mm 1 m/S 743 mmHg 83%
07:00 +26°C° 0 mm 1 m/S 743 mmHg 77%
08:00 +28°C° 0 mm 1 m/S 743 mmHg 72%
09:00 +29°C° 0.2 mm 1 m/S 743 mmHg 66%
10:00 +30°C° 0.2 mm 1 m/S 743 mmHg 60%
11:00 +32°C° 0.2 mm 2 m/S 743 mmHg 55%
12:00 +32°C° 0 mm 2 m/S 743 mmHg 53%
13:00 +32°C° 0 mm 2 m/S 743 mmHg 51%
14:00 +34°C° 0 mm 2 m/S 743 mmHg 49%
15:00 +31°C° 0.2 mm 3 m/S 742 mmHg 56%
16:00 +30°C° 0.2 mm 3 m/S 742 mmHg 62%
17:00 +29°C° 0.2 mm 4 m/S 742 mmHg 69%
18:00 +26°C° 2.4 mm 3 m/S 742 mmHg 77%
19:00 +23°C° 2.4 mm 2 m/S 742 mmHg 85%
20:00 +19°C° 2.4 mm 2 m/S 742 mmHg 94%
21:00 +19°C° 0.1 mm 2 m/S 742 mmHg 93%
22:00 +19°C° 0.1 mm 2 m/S 742 mmHg 91%
23:00 +19°C° 0.1 mm 2 m/S 742 mmHg 90%

27 Juni, Sonntag

Zeit Temperatur Niederschläge Wind Luftdruck Luftfeuchtigkeit
00:00 +19°C° 0 mm 2 m/S 742 mmHg 91%
01:00 +19°C° 0 mm 2 m/S 742 mmHg 92%
02:00 +20°C° 0 mm 1 m/S 742 mmHg 93%
03:00 +20°C° 0 mm 1 m/S 742 mmHg 92%
04:00 +21°C° 0 mm 1 m/S 742 mmHg 91%
05:00 +19°C° 0 mm 0 m/S 742 mmHg 90%
06:00 +23°C° 0 mm 1 m/S 742 mmHg 85%
07:00 +24°C° 0 mm 1 m/S 742 mmHg 80%
08:00 +26°C° 0 mm 1 m/S 742 mmHg 75%
09:00 +27°C° 0.1 mm 2 m/S 742 mmHg 72%
10:00 +28°C° 0.1 mm 2 m/S 742 mmHg 68%
11:00 +29°C° 0.1 mm 2 m/S 742 mmHg 64%
12:00 +29°C° 0.4 mm 3 m/S 742 mmHg 65%
13:00 +29°C° 0.4 mm 3 m/S 742 mmHg 65%
14:00 +29°C° 0.4 mm 3 m/S 742 mmHg 65%
15:00 +29°C° 1.1 mm 3 m/S 742 mmHg 71%
16:00 +28°C° 1.1 mm 3 m/S 742 mmHg 76%
17:00 +27°C° 1.1 mm 3 m/S 742 mmHg 81%
18:00 +26°C° 0.7 mm 3 m/S 742 mmHg 84%
19:00 +25°C° 0.7 mm 3 m/S 742 mmHg 86%
20:00 +23°C° 0.7 mm 2 m/S 742 mmHg 88%
21:00 +23°C° 0 mm 2 m/S 742 mmHg 90%
22:00 +21°C° 0 mm 3 m/S 742 mmHg 91%
23:00 +20°C° 0 mm 3 m/S 742 mmHg 93%
Mehr zeigen

Wir brauchen deine Erlaubnis

Meteoprog und unser Service Anbieter werden persönliche Daten aufbewahren, so wie Cookies, Geräte Bezeichnung oder ähnliche Technologien von deinem Gerät und Prozess, so wie Persönliche Daten Inhalte und Werbungen, genauso wie social Media und den Verkehr zu analysieren.

  • Aufbewahrung und/oder Zugang zu deiner Geräte Informationen.

    Cookies, Geräte Bezeichnung oder andere Informationen, können aufbewahrt oder Zugang zu deinem Gerät erhalten, für den Grund, der oben angegeben wird.

  • Personalisierte Werbung und Inhalte, Messungen, Einblick in das Publikum und Produkt Entwicklung.

    Werbungen und Inhalte können personalisiert werden, basierend auf ein Profil. Mehr Daten können besser personalisierte Werbungen und Inhalte hinzufügen. Werbung und Inhalte können gezeigt und gemessen werden. Einblicke über das Publikum, welche die Werbung gesehen haben und den Inhalt, können abgeleitet werden. So wie Daten können genutzt werden, um es zu verbessern oder die Benutzer Erfahrung zu verbessern das System und die Software.

Wenn du “Ich stimme zu” klickst, erlaubst du uns, die Cookies zu benutzen die Geräte Bezeichnung, den Web oder ähnliche Technologien zu benutzen. Deine Settings, können in deinem Gerät bei deinem Browser geändert werden.

Für den bestimmten Zweck, berechtigten Interessen beruhen darauf, mehr als auf den Inhalt. Du kannst mehr darüber in unseren Privaten und Cookie Politik lesen.